OCN9814 EVRA-EDDH

Flight info

Callsign OCN9814
Flight time N/A
Altitude 36000
Route VALED DCT ADAXA DCT NINTA DCT BAGOS N850 BOGMU BOGMU3P
Aircraft A320/M-SDE3FGHIRWY/LB1

Departure

Time N/A
Airport Riga International Airport (EVRA)

Arrival

Time 2026-04-24 20:16
Airport Hamburg Helmut Schmidt Airport (EDDH)
Time Latitude Longitude Altitude Speed Heading
2026-04-24 18:54 56.75854 21.36233 32452 ft 421 kts 256°
2026-04-24 18:55 56.74241 21.26009 33107 ft 419 kts 256°
2026-04-24 18:55 56.73429 21.20887 33431 ft 418 kts 256°
2026-04-24 18:55 56.72620 21.15804 33755 ft 418 kts 256°
2026-04-24 18:56 56.71818 21.10778 34048 ft 417 kts 256°
2026-04-24 18:56 56.71003 21.05698 34290 ft 417 kts 256°
2026-04-24 18:56 56.70190 21.00637 34529 ft 417 kts 256°
2026-04-24 18:56 56.69373 20.95560 34732 ft 418 kts 256°
2026-04-24 18:57 56.68553 20.90482 34946 ft 418 kts 256°
2026-04-24 18:57 56.67729 20.85399 35163 ft 419 kts 256°
2026-04-24 18:57 56.66904 20.80317 35360 ft 419 kts 256°
2026-04-24 18:57 56.66077 20.75234 35556 ft 419 kts 256°
2026-04-24 18:58 56.65247 20.70148 35742 ft 420 kts 256°
2026-04-24 18:58 56.64411 20.65047 35893 ft 420 kts 256°
2026-04-24 18:58 56.63586 20.60027 35931 ft 419 kts 256°
2026-04-24 18:59 56.61911 20.49877 35933 ft 418 kts 256°
2026-04-24 18:59 56.60228 20.39759 35940 ft 418 kts 256°
2026-04-24 19:00 56.58539 20.29663 35939 ft 418 kts 256°
2026-04-24 19:00 56.56848 20.19561 35941 ft 418 kts 256°
2026-04-24 19:01 56.55155 20.09522 35940 ft 418 kts 256°
2026-04-24 19:01 56.53438 19.99441 35939 ft 418 kts 256°
2026-04-24 19:02 56.52004 19.91068 35941 ft 418 kts 256°
2026-04-24 19:02 56.49981 19.79313 35936 ft 418 kts 256°
2026-04-24 19:03 56.48250 19.69282 35935 ft 417 kts 256°
2026-04-24 19:03 56.46506 19.59247 35948 ft 418 kts 256°
2026-04-24 19:04 56.44767 19.49290 35953 ft 418 kts 256°
2026-04-24 19:04 56.43008 19.39285 35954 ft 418 kts 256°
2026-04-24 19:05 56.41235 19.29266 35957 ft 418 kts 256°
2026-04-24 19:05 56.39460 19.19278 35962 ft 417 kts 256°
2026-04-24 19:06 56.37687 19.09362 35963 ft 417 kts 256°
2026-04-24 19:06 56.35895 18.99409 35959 ft 417 kts 256°
2026-04-24 19:07 56.34101 18.89455 35959 ft 416 kts 256°
2026-04-24 19:07 56.32604 18.81200 35956 ft 416 kts 256°
2026-04-24 19:08 56.30492 18.69623 35959 ft 415 kts 256°
2026-04-24 19:08 56.28687 18.59822 35951 ft 415 kts 256°
2026-04-24 19:09 56.26863 18.49949 35959 ft 415 kts 256°
2026-04-24 19:09 56.25044 18.40112 35949 ft 414 kts 256°
2026-04-24 19:10 56.23210 18.30276 35950 ft 414 kts 256°
2026-04-24 19:10 56.21328 18.20552 35945 ft 415 kts 255°
2026-04-24 19:11 56.19363 18.10789 35953 ft 415 kts 255°
2026-04-24 19:11 56.17388 18.01053 35950 ft 415 kts 255°
2026-04-24 19:12 56.15422 17.91318 35948 ft 414 kts 255°
2026-04-24 19:12 56.13451 17.81591 35946 ft 414 kts 255°
2026-04-24 19:13 56.11807 17.73507 35949 ft 414 kts 255°
2026-04-24 19:13 56.09506 17.62235 35946 ft 414 kts 255°
2026-04-24 19:14 56.07518 17.52570 35943 ft 413 kts 255°
2026-04-24 19:14 56.05521 17.42918 35946 ft 413 kts 255°
2026-04-24 19:15 56.03513 17.33262 35951 ft 413 kts 255°
2026-04-24 19:15 56.01496 17.23626 35954 ft 413 kts 255°
2026-04-24 19:16 55.98481 17.09288 35953 ft 412 kts 255°
2026-04-24 19:16 55.96458 16.99708 35932 ft 407 kts 255°
2026-04-24 19:17 55.94464 16.90347 35911 ft 399 kts 255°
2026-04-24 19:17 55.92511 16.81209 35952 ft 390 kts 255°
2026-04-24 19:18 55.90551 16.72018 35949 ft 402 kts 255°
2026-04-24 19:18 55.88543 16.62636 35948 ft 408 kts 255°
2026-04-24 19:19 55.86500 16.53192 35943 ft 408 kts 255°
2026-04-24 19:19 55.84461 16.43825 35945 ft 407 kts 255°
2026-04-24 19:20 55.82403 16.34424 35939 ft 407 kts 255°
2026-04-24 19:20 55.80348 16.25049 35940 ft 406 kts 255°
2026-04-24 19:21 55.78291 16.15681 35944 ft 406 kts 255°
2026-04-24 19:21 55.76232 16.06397 35944 ft 406 kts 255°
2026-04-24 19:22 55.74155 15.97061 35943 ft 406 kts 255°
2026-04-24 19:22 55.72092 15.87761 35942 ft 405 kts 255°
2026-04-24 19:23 55.70009 15.78464 35942 ft 405 kts 255°
2026-04-24 19:23 55.67919 15.69205 35937 ft 404 kts 255°
2026-04-24 19:24 55.65840 15.60029 35933 ft 404 kts 255°
2026-04-24 19:24 55.63748 15.50801 35930 ft 403 kts 255°
2026-04-24 19:25 55.61649 15.41588 35928 ft 403 kts 254°
2026-04-24 19:25 55.59550 15.32440 35924 ft 403 kts 254°
2026-04-24 19:26 55.57777 15.24739 35927 ft 403 kts 254°
2026-04-24 19:26 55.55677 15.15630 35918 ft 403 kts 254°
2026-04-24 19:27 55.53550 15.06457 35916 ft 403 kts 254°
2026-04-24 19:27 55.51415 14.97297 35922 ft 403 kts 254°
2026-04-24 19:28 55.49292 14.88203 35918 ft 403 kts 254°
2026-04-24 19:28 55.47150 14.79061 35928 ft 404 kts 253°
2026-04-24 19:29 55.43909 14.65366 35932 ft 404 kts 253°
2026-04-24 19:30 55.41737 14.56232 35934 ft 404 kts 253°
2026-04-24 19:30 55.39564 14.47098 35937 ft 404 kts 253°
2026-04-24 19:31 55.37386 14.38000 35935 ft 404 kts 253°
2026-04-24 19:31 55.35207 14.28937 35943 ft 404 kts 253°
2026-04-24 19:32 55.33005 14.19809 35947 ft 405 kts 252°
2026-04-24 19:32 55.30798 14.10707 35953 ft 405 kts 252°
2026-04-24 19:33 55.28579 14.01590 35955 ft 406 kts 252°
2026-04-24 19:33 55.26365 13.92527 35957 ft 406 kts 252°
2026-04-24 19:34 55.24126 13.83409 35961 ft 407 kts 252°
2026-04-24 19:34 55.21881 13.74291 35958 ft 407 kts 252°
2026-04-24 19:35 55.19627 13.65193 35961 ft 407 kts 251°
2026-04-24 19:35 55.17375 13.56146 35963 ft 408 kts 251°
2026-04-24 19:36 55.15025 13.47094 35964 ft 411 kts 247°
2026-04-24 19:36 55.12239 13.38349 35963 ft 412 kts 245°
2026-04-24 19:37 55.09355 13.29670 35968 ft 413 kts 245°
2026-04-24 19:37 55.06471 13.20981 35975 ft 414 kts 245°
2026-04-24 19:38 55.03613 13.12310 35974 ft 414 kts 245°
2026-04-24 19:38 55.00736 13.03583 35980 ft 415 kts 245°
2026-04-24 19:39 54.97845 12.94864 35980 ft 416 kts 244°
2026-04-24 19:39 54.94940 12.86153 35983 ft 416 kts 244°
2026-04-24 19:40 54.92043 12.77495 35986 ft 416 kts 244°
2026-04-24 19:40 54.89118 12.68772 35990 ft 416 kts 244°
2026-04-24 19:41 54.86194 12.60092 35987 ft 416 kts 244°
2026-04-24 19:41 54.83260 12.51420 35942 ft 417 kts 244°
2026-04-24 19:41 54.81808 12.47127 35684 ft 417 kts 244°
2026-04-24 19:42 54.80340 12.42792 35435 ft 416 kts 244°
2026-04-24 19:42 54.78868 12.38460 35186 ft 416 kts 244°
2026-04-24 19:42 54.77394 12.34136 34938 ft 416 kts 244°
2026-04-24 19:42 54.75912 12.29804 34697 ft 416 kts 243°
2026-04-24 19:43 54.74435 12.25490 34450 ft 417 kts 243°
2026-04-24 19:43 54.72955 12.21177 34209 ft 415 kts 243°
2026-04-24 19:43 54.71498 12.16941 33973 ft 413 kts 243°
2026-04-24 19:43 54.70029 12.12673 33703 ft 412 kts 243°
2026-04-24 19:44 54.68567 12.08427 33414 ft 410 kts 243°
2026-04-24 19:44 54.67108 12.04192 33143 ft 408 kts 243°
2026-04-24 19:44 54.65655 11.99990 32875 ft 407 kts 243°
2026-04-24 19:44 54.64201 11.95790 32610 ft 405 kts 243°
2026-04-24 19:45 54.62759 11.91627 32342 ft 404 kts 243°
2026-04-24 19:45 54.61319 11.87480 32078 ft 402 kts 243°
2026-04-24 19:45 54.59884 11.83341 31821 ft 401 kts 243°
2026-04-24 19:45 54.58453 11.79223 31572 ft 399 kts 243°
2026-04-24 19:46 54.57042 11.75177 31320 ft 398 kts 243°
2026-04-24 19:46 54.55614 11.71090 31067 ft 396 kts 243°
2026-04-24 19:46 54.54192 11.67032 30817 ft 394 kts 243°
2026-04-24 19:46 54.52781 11.63014 30390 ft 389 kts 243°
2026-04-24 19:47 54.51379 11.59034 29878 ft 386 kts 243°
2026-04-24 19:47 54.49991 11.55103 29394 ft 382 kts 243°
2026-04-24 19:47 54.48636 11.51276 28936 ft 377 kts 243°
2026-04-24 19:47 54.47282 11.47443 28488 ft 372 kts 243°
2026-04-24 19:48 54.45938 11.43639 27731 ft 375 kts 243°
2026-04-24 19:48 54.44570 11.39763 26685 ft 384 kts 243°
2026-04-24 19:48 54.41818 11.31998 25903 ft 372 kts 243°
2026-04-24 19:49 54.39146 11.24488 24956 ft 365 kts 242°
2026-04-24 19:49 54.36509 11.17103 23750 ft 360 kts 242°
2026-04-24 19:50 54.32635 11.06338 21684 ft 349 kts 242°
2026-04-24 19:50 54.31366 11.02816 21050 ft 345 kts 243°
2026-04-24 19:51 54.28585 10.96173 19806 ft 340 kts 237°
2026-04-24 19:51 54.27148 10.92973 19206 ft 337 kts 237°
2026-04-24 19:52 54.24310 10.86659 18312 ft 334 kts 237°
2026-04-24 19:52 54.22896 10.83524 17870 ft 332 kts 237°
2026-04-24 19:52 54.21482 10.80403 17435 ft 331 kts 237°
2026-04-24 19:52 54.20075 10.77302 17025 ft 329 kts 237°
2026-04-24 19:53 54.18678 10.74232 16735 ft 324 kts 237°
2026-04-24 19:53 54.17315 10.71244 16548 ft 316 kts 237°
2026-04-24 19:53 54.14675 10.65444 16116 ft 304 kts 237°
2026-04-24 19:54 54.13405 10.62669 15977 ft 287 kts 238°
2026-04-24 19:54 54.12205 10.60047 15774 ft 274 kts 238°
2026-04-24 19:54 54.11049 10.57512 15382 ft 270 kts 238°
2026-04-24 19:54 54.09898 10.54988 15059 ft 267 kts 238°
2026-04-24 19:55 54.09144 10.53334 14753 ft 266 kts 238°
2026-04-24 19:55 54.07630 10.50016 14142 ft 265 kts 239°
2026-04-24 19:55 54.06499 10.47540 13720 ft 264 kts 239°
2026-04-24 19:55 54.05378 10.45086 13361 ft 265 kts 239°
2026-04-24 19:56 54.04248 10.42619 13023 ft 265 kts 239°
2026-04-24 19:56 54.03109 10.40144 12684 ft 264 kts 238°
2026-04-24 19:56 54.01976 10.37677 12344 ft 264 kts 240°
2026-04-24 19:56 54.01105 10.35004 12010 ft 256 kts 253°
2026-04-24 19:57 54.00421 10.32202 11643 ft 256 kts 254°
2026-04-24 19:57 53.99756 10.29396 11306 ft 254 kts 254°
2026-04-24 19:57 53.99099 10.26632 10994 ft 251 kts 255°
2026-04-24 19:57 53.98442 10.23873 10678 ft 251 kts 255°
2026-04-24 19:58 53.97788 10.21133 10367 ft 251 kts 255°
2026-04-24 19:58 53.97135 10.18409 10059 ft 250 kts 254°
2026-04-24 19:58 53.96476 10.15670 9721 ft 250 kts 254°
2026-04-24 19:58 53.95823 10.12945 9319 ft 247 kts 254°
2026-04-24 19:59 53.95180 10.10255 8937 ft 247 kts 254°
2026-04-24 19:59 53.94538 10.07537 8561 ft 249 kts 254°
2026-04-24 19:59 53.93899 10.04817 8165 ft 246 kts 254°
2026-04-24 19:59 53.93278 10.02175 7796 ft 241 kts 254°
2026-04-24 20:00 53.92624 9.99572 7430 ft 243 kts 245°
2026-04-24 20:00 53.91404 9.97521 7144 ft 255 kts 213°
2026-04-24 20:00 53.89677 9.96800 7138 ft 264 kts 181°
2026-04-24 20:00 53.87889 9.97603 7145 ft 270 kts 152°
2026-04-24 20:01 53.86301 9.99313 7141 ft 271 kts 145°
2026-04-24 20:01 53.84760 10.01151 7145 ft 271 kts 144°
2026-04-24 20:01 53.83410 10.03343 7143 ft 268 kts 119°
2026-04-24 20:01 53.82816 10.06259 7147 ft 260 kts 88°
2026-04-24 20:02 53.82921 10.08232 7145 ft 252 kts 68°
2026-04-24 20:02 53.83893 10.11772 7136 ft 247 kts 55°
2026-04-24 20:02 53.84733 10.14315 7138 ft 247 kts 54°
2026-04-24 20:02 53.85578 10.16852 7137 ft 247 kts 54°
2026-04-24 20:03 53.86413 10.19351 7138 ft 247 kts 54°
2026-04-24 20:03 53.87260 10.21886 7142 ft 247 kts 54°
2026-04-24 20:03 53.88105 10.24426 7129 ft 246 kts 54°
2026-04-24 20:03 53.88942 10.26947 6838 ft 245 kts 54°
2026-04-24 20:04 53.89784 10.29464 6543 ft 245 kts 54°
2026-04-24 20:04 53.90624 10.31971 6243 ft 243 kts 54°
2026-04-24 20:04 53.91460 10.34467 5938 ft 243 kts 54°
2026-04-24 20:04 53.92286 10.36928 5643 ft 242 kts 54°
2026-04-24 20:05 53.93114 10.39403 5351 ft 240 kts 54°
2026-04-24 20:05 53.93937 10.41880 5059 ft 239 kts 54°
2026-04-24 20:05 53.94742 10.44312 4766 ft 238 kts 54°
2026-04-24 20:05 53.95546 10.46769 4483 ft 237 kts 54°
2026-04-24 20:06 53.96140 10.49385 4213 ft 244 kts 78°
2026-04-24 20:06 53.95891 10.52258 4008 ft 254 kts 111°
2026-04-24 20:06 53.94778 10.54592 3971 ft 260 kts 144°
2026-04-24 20:06 53.93107 10.55715 3986 ft 259 kts 176°
2026-04-24 20:07 53.91928 10.55625 3990 ft 254 kts 197°
2026-04-24 20:07 53.89681 10.54482 3986 ft 252 kts 204°
2026-04-24 20:07 53.88032 10.53507 3983 ft 250 kts 204°
2026-04-24 20:07 53.86406 10.52535 3985 ft 250 kts 205°
2026-04-24 20:08 53.84937 10.51126 3977 ft 239 kts 232°
2026-04-24 20:08 53.84188 10.48771 3989 ft 222 kts 266°
2026-04-24 20:08 53.83954 10.46187 3990 ft 222 kts 267°
2026-04-24 20:08 53.83702 10.43601 3991 ft 222 kts 266°
2026-04-24 20:09 53.83349 10.41037 3988 ft 227 kts 253°
2026-04-24 20:09 53.82573 10.38794 3983 ft 220 kts 240°
2026-04-24 20:09 53.81629 10.36779 3991 ft 217 kts 237°
2026-04-24 20:09 53.80671 10.34818 3989 ft 215 kts 237°
2026-04-24 20:10 53.79714 10.32855 3996 ft 215 kts 237°
2026-04-24 20:10 53.78761 10.30899 3997 ft 216 kts 237°
2026-04-24 20:10 53.77805 10.28937 4010 ft 216 kts 237°
2026-04-24 20:10 53.76863 10.27005 4010 ft 215 kts 237°
2026-04-24 20:11 53.75912 10.25057 3874 ft 213 kts 237°
2026-04-24 20:11 53.74966 10.23121 3635 ft 213 kts 238°
2026-04-24 20:11 53.74044 10.21241 3374 ft 200 kts 237°
2026-04-24 20:11 53.73182 10.19482 3095 ft 189 kts 238°
2026-04-24 20:12 53.72636 10.18365 2919 ft 185 kts 238°
2026-04-24 20:12 53.71823 10.16701 2687 ft 182 kts 238°
2026-04-24 20:12 53.71021 10.15062 2436 ft 180 kts 238°
2026-04-24 20:12 53.70232 10.13454 2191 ft 175 kts 238°
2026-04-24 20:13 53.69462 10.11886 1955 ft 171 kts 238°
2026-04-24 20:13 53.68721 10.10379 1711 ft 160 kts 237°
2026-04-24 20:13 53.68053 10.09025 1503 ft 145 kts 238°
2026-04-24 20:13 53.67428 10.07752 1309 ft 137 kts 238°
2026-04-24 20:14 53.66829 10.06528 1106 ft 134 kts 238°
2026-04-24 20:14 53.66238 10.05316 893 ft 132 kts 236°
2026-04-24 20:14 53.65654 10.04130 740 ft 130 kts 236°
2026-04-24 20:14 53.65077 10.02948 533 ft 131 kts 236°
2026-04-24 20:15 53.64497 10.01777 346 ft 130 kts 235°
2026-04-24 20:15 53.63913 10.00605 175 ft 130 kts 234°
2026-04-24 20:15 53.63344 9.99430 59 ft 128 kts 235°
2026-04-24 20:15 53.62860 9.98429 44 ft 86 kts 229°
2026-04-24 20:16 53.62575 9.97882 41 ft 31 kts 229°
2026-04-24 20:16 53.62499 9.97782 41 ft 12 kts 190°
2026-04-24 20:16 53.62438 9.97835 43 ft 8 kts 126°
2026-04-24 20:16 53.62428 9.97887 45 ft 2 kts 96°
2026-04-24 20:17 53.62429 9.97919 46 ft 0 kts 85°
2026-04-24 20:18 53.62429 9.97920 46 ft 1 kts 85°
2026-04-24 20:18 53.62469 9.98101 47 ft 17 kts 56°
2026-04-24 20:18 53.62542 9.98254 47 ft 16 kts 50°
2026-04-24 20:18 53.62636 9.98441 47 ft 24 kts 50°
2026-04-24 20:19 53.62735 9.98642 47 ft 22 kts 51°
2026-04-24 20:19 53.62825 9.98824 47 ft 21 kts 50°
2026-04-24 20:19 53.62915 9.99007 47 ft 20 kts 50°
2026-04-24 20:19 53.63001 9.99181 47 ft 14 kts 51°
2026-04-24 20:20 53.63061 9.99310 47 ft 15 kts 55°
2026-04-24 20:20 53.63080 9.99356 47 ft 0 kts 55°
2026-04-24 20:21 53.63114 9.99438 46 ft 21 kts 54°
2026-04-24 20:22 53.63184 9.99597 47 ft 14 kts 51°
2026-04-24 20:22 53.63216 9.99659 48 ft 0 kts 50°
2026-04-24 20:22 53.63222 9.99724 48 ft 9 kts 101°
2026-04-24 20:22 53.63180 9.99796 48 ft 9 kts 148°
2026-04-24 20:23 53.63096 9.99871 48 ft 18 kts 153°
2026-04-24 20:23 53.62989 9.99962 48 ft 16 kts 153°
2026-04-24 20:23 53.62951 10.00106 48 ft 14 kts 77°
2026-04-24 20:23 53.62934 10.00255 48 ft 12 kts 108°
2026-04-24 20:24 53.62925 10.00299 48 ft 0 kts 108°